KJ4AJP Weather Reports


Display with metric or nautical units.
time (UTC)temp
F
wind
direction
speed
MPH
gust
MPH
rain 1hr
in
rain 24hr
in
rain mn
in
humidity
%
barometer
mb
20260902095655 73 58 0.0 0.0 0.00 0.00 0.00 94 1017.2
20260902095149 73 58 0.0 0.0 0.00 0.00 0.00 94 1017.2
20260902094645 73 58 0.0 0.0 0.00 0.00 0.00 93 1017.1
20260902094141 73 58 0.0 0.0 0.00 0.00 0.00 93 1017.2
20260902093640 73 58 0.0 0.0 0.00 0.00 0.00 92 1016.9
20260902093135 73 58 0.0 0.0 0.00 0.00 0.00 92 1017.1
20260902092630 74 58 0.0 0.0 0.00 0.00 0.00 92 1017.1
20260902092125 74 58 0.0 0.0 0.00 0.00 0.00 91 1017.1
20260902091620 74 58 0.0 0.0 0.00 0.00 0.00 90 1016.9
20260902091116 74 58 0.0 0.0 0.00 0.00 0.00 91 1016.9
20260902090612 74 58 0.0 0.0 0.00 0.00 0.00 91 1017.0
20260902090112 74 58 0.0 0.0 0.00 0.00 0.00 91 1017.1
20260902085612 74 58 0.0 0.0 0.00 0.00 0.00 91 1017.2
20260902085107 74 58 0.0 0.0 0.00 0.00 0.00 90 1016.9
20260902084603 75 58 0.0 0.0 0.00 0.00 0.00 89 1016.9
20260902084059 75 58 0.0 0.0 0.00 0.00 0.00 88 1016.7
20260902083554 75 58 0.0 0.0 0.00 0.00 0.00 88 1016.8
20260902083053 76 58 0.0 0.0 0.00 0.00 0.00 88 1016.9
20260902082549 76 58 0.0 0.0 0.00 0.00 0.00 88 1016.8
20260902082045 76 58 0.0 0.0 0.00 0.00 0.00 88 1016.8
20260902081542 76 58 0.0 0.0 0.00 0.00 0.00 88 1016.9
20260902081041 76 58 0.0 0.0 0.00 0.00 0.00 88 1016.8
20260902080537 76 58 0.0 0.0 0.00 0.00 0.00 88 1016.8
20260902080033 76 58 0.0 0.0 0.00 0.00 0.00 88 1016.9
20260902075532 76 58 0.0 0.0 0.00 0.00 0.00 88 1016.9
20260902075029 76 58 0.0 0.0 0.00 0.00 0.00 88 1016.9
20260902074525 76 58 0.0 0.0 0.00 0.00 0.00 88 1016.7
20260902074025 76 58 0.0 0.0 0.00 0.00 0.00 87 1016.8
20260902073520 76 58 0.0 0.0 0.00 0.00 0.00 87 1017.0
20260902073018 76 58 0.0 0.0 0.00 0.00 0.00 87 1016.7
20260902072518 76 58 0.0 0.0 0.00 0.00 0.00 87 1017.0
20260902072015 76 58 0.0 0.0 0.00 0.00 0.00 87 1017.0
20260902071514 77 57 0.0 0.0 0.00 0.00 0.00 86 1017.0
20260902071011 77 57 0.0 0.0 0.00 0.00 0.00 86 1017.0
20260902070506 77 57 0.0 0.0 0.00 0.00 0.00 86 1017.0
20260902070007 77 57 0.0 0.0 0.00 0.00 0.00 87 1016.8
20260902065459 77 57 0.0 0.0 0.00 0.00 0.00 86 1017.2
20260902064954 77 57 0.0 0.0 0.00 0.00 0.00 86 1017.1
20260902064450 77 57 0.0 0.0 0.00 0.00 0.00 86 1017.1
20260902063946 77 57 0.0 0.0 0.00 0.00 0.00 86 1017.1
20260902063445 77 57 0.0 0.0 0.00 0.00 0.00 86 1017.0
20260902062941 77 57 0.0 0.0 0.00 0.00 0.00 86 1016.9
20260902062439 77 57 0.0 0.0 0.00 0.00 0.00 85 1016.9
20260902061935 77 57 0.0 0.0 0.00 0.00 0.00 86 1016.9
20260902061430 77 57 0.0 0.0 0.00 0.00 0.00 86 1016.8
20260902060926 77 57 0.0 0.0 0.00 0.00 0.00 85 1016.8
20260902060422 77 57 0.0 0.0 0.00 0.00 0.00 85 1016.8
20260902055917 78 57 0.0 0.0 0.00 0.00 0.00 84 1016.7
20260902055414 78 57 0.0 0.0 0.00 0.00 0.00 83 1017.0
20260902054909 78 57 0.0 0.0 0.00 0.00 0.00 83 1016.7
20260902054403 78 57 0.0 0.0 0.00 0.00 0.00 83 1016.6
20260902053859 78 57 0.0 0.0 0.00 0.00 0.00 82 1016.9
20260902053354 79 57 0.0 0.0 0.00 0.00 0.00 82 1016.6
20260902052853 79 57 0.0 0.0 0.00 0.00 0.00 82 1016.8
20260902052348 79 57 0.0 0.0 0.00 0.00 0.00 81 1016.8
20260902051843 79 57 0.0 0.0 0.00 0.00 0.00 80 1016.7
20260902051337 80 57 0.0 0.0 0.00 0.00 0.00 80 1016.8
20260902050832 80 57 0.0 0.0 0.00 0.00 0.00 79 1016.8
20260902050331 80 57 0.0 0.0 0.00 0.00 0.00 78 1016.7
20260902045827 80 56 0.0 0.0 0.00 0.00 0.00 78 1016.6
20260902045322 80 57 0.0 0.0 0.00 0.00 0.00 78 1016.6
20260902044818 80 61 0.0 0.0 0.00 0.00 0.00 78 1016.5
20260902044314 80 65 0.0 0.0 0.00 0.00 0.00 79 1016.6
20260902043808 80 65 0.0 0.0 0.00 0.00 0.00 79 1016.6
20260902043304 80 61 0.0 0.0 0.00 0.00 0.00 78 1016.6
20260902042803 80 65 0.0 0.0 0.00 0.00 0.00 79 1016.8
20260902042258 80 66 0.0 0.0 0.00 0.00 0.00 79 1016.7
20260902041753 80 66 0.0 0.0 0.00 0.00 0.00 79 1016.7
20260902041253 80 66 0.0 0.0 0.00 0.00 0.00 78 1016.4
20260902040752 80 66 0.0 0.0 0.00 0.00 0.00 78 1016.7
20260902040248 80 65 0.0 0.0 0.00 0.00 0.00 79 1016.7
20260902035746 80 65 0.0 0.0 0.00 0.00 0.00 78 1016.6
20260902035242 80 65 0.0 0.0 0.00 0.00 0.00 78 1016.7
20260902034741 80 65 0.0 0.0 0.00 0.00 0.00 77 1016.7
20260902034236 80 65 0.0 0.0 0.00 0.00 0.00 77 1016.8
20260902033734 80 65 0.0 0.0 0.00 0.00 0.00 77 1016.9
20260902033229 80 67 0.0 0.0 0.00 0.00 0.00 78 1016.8
20260902032728 80 67 0.0 0.0 0.00 0.00 0.00 78 1016.6
20260902032223 80 67 0.0 0.0 0.00 0.00 0.00 78 1016.9
20260902031722 80 67 0.0 0.0 0.00 0.00 0.00 78 1016.9
20260902031218 80 67 0.0 0.0 0.00 0.00 0.00 78 1016.9
20260902030714 81 67 0.0 0.0 0.00 0.00 0.00 78 1017.0
20260902030213 81 67 0.0 0.0 0.00 0.00 0.00 78 1016.9
20260902025713 81 67 0.0 0.0 0.00 0.00 0.00 78 1016.9
20260902025209 81 67 0.0 0.0 0.00 0.00 0.00 77 1016.6
20260902024709 82 67 0.0 0.0 0.00 0.00 0.00 77 1016.8
20260902024204 82 67 0.0 0.0 0.00 0.00 0.00 77 1016.8
20260902023659 82 67 0.0 0.0 0.00 0.00 0.00 76 1016.8
20260902023154 82 53 0.0 0.0 0.00 0.00 0.00 76 1016.7
20260902022654 82 60 0.0 0.0 0.00 0.00 0.00 76 1016.7
20260902022150 82 60 0.0 0.0 0.00 0.00 0.00 76 1016.7
20260902021646 83 57 0.0 0.0 0.00 0.00 0.00 75 1016.7
20260902021146 83 58 0.0 0.0 0.00 0.00 0.00 75 1016.7
20260902020642 83 58 0.0 0.0 0.00 0.00 0.00 75 1016.7
20260902020138 83 58 0.0 0.0 0.00 0.00 0.00 75 1016.6
20260902015633 83 58 0.0 0.0 0.00 0.00 0.00 75 1016.7
20260902015130 83 58 0.0 0.0 0.00 0.00 0.00 75 1016.7
20260902014625 83 58 0.0 0.0 0.00 0.00 0.00 74 1016.5
20260902014120 83 58 0.0 0.0 0.00 0.00 0.00 73 1016.7
20260902013619 84 58 0.0 0.0 0.00 0.00 0.00 73 1016.3
20260902013115 84 58 0.0 0.0 0.00 0.00 0.00 73 1016.6
20260902012610 84 58 0.0 0.0 0.00 0.00 0.00 72 1016.5
20260902012106 84 58 0.0 0.0 0.00 0.00 0.00 72 1016.5
20260902011601 84 65 0.0 0.0 0.00 0.00 0.00 72 1016.4
20260902011100 84 64 0.0 0.0 0.00 0.00 0.00 72 1016.3
20260902010555 84 67 0.0 0.0 0.00 0.00 0.00 72 1016.1
20260902010051 84 60 0.0 0.0 0.00 0.00 0.00 71 1016.0
20260902005548 85 60 0.0 0.0 0.00 0.00 0.00 71 1016.1
20260902005045 84 60 0.0 0.0 0.00 0.00 0.00 71 1016.0
20260902004544 85 59 0.0 0.0 0.00 0.00 0.00 71 1015.9
20260902004039 85 59 0.0 0.0 0.00 0.00 0.00 70 1016.1
20260902003535 85 58 0.0 0.0 0.00 0.00 0.00 70 1016.1
20260902003030 85 58 0.0 0.0 0.00 0.00 0.00 69 1016.1
20260902002526 86 58 0.0 0.0 0.00 0.00 0.00 69 1016.1
20260902002020 86 58 0.0 0.0 0.00 0.00 0.00 69 1015.9
20260902001514 86 55 0.0 0.0 0.00 0.00 0.00 68 1015.9
20260902001010 87 55 0.0 0.0 0.00 0.00 0.00 66 1016.0
20260902000505 87 55 0.0 0.0 0.00 0.00 0.00 65 1016.3
20260901235959 88 55 0.0 0.0 0.00 0.00 0.00 64 1016.3
20260901235455 89 55 0.0 0.0 0.00 0.00 0.00 63 1016.4
20260901234950 89 55 0.0 0.0 0.00 0.00 0.00 62 1016.0
20260901234449 90 55 0.0 0.0 0.00 0.00 0.00 61 1016.1
20260901233944 90 55 0.0 0.0 0.00 0.00 0.00 60 1016.5
20260901233444 91 55 0.0 0.0 0.00 0.00 0.00 58 1016.4
20260901232941 91 55 0.0 0.0 0.00 0.00 0.00 59 1016.4
20260901232436 92 62 0.0 0.0 0.00 0.00 0.00 57 1016.1
20260901231931 92 55 0.0 0.0 0.00 0.00 0.00 56 1016.3
20260901231427 93 56 0.0 0.0 0.00 0.00 0.00 54 1016.4
20260901230924 94 55 0.0 0.0 0.00 0.00 0.00 53 1016.0
20260901230423 94 53 0.0 0.0 0.00 0.00 0.00 53 1016.1
20260901225919 95 69 1.0 1.0 0.00 0.00 0.00 52 1016.1
20260901225418 95 53 0.0 1.0 0.00 0.00 0.00 52 1016.0
20260901224913 95 44 1.0 2.0 0.00 0.00 0.00 50 1016.3
20260901224410 96 50 0.0 0.0 0.00 0.00 0.00 50 1016.1
20260901223906 96 45 1.0 1.0 0.00 0.00 0.00 48 1016.3
20260901223401 96 51 0.0 1.0 0.00 0.00 0.00 51 1016.1
20260901222856 96 51 0.0 0.0 0.00 0.00 0.00 50 1016.3
20260901222353 98 47 1.0 1.0 0.00 0.00 0.00 48 1015.9
20260901221848 98 46 0.0 0.0 0.00 0.00 0.00 48 1016.3
20260901221344 97 54 0.0 0.0 0.00 0.00 0.00 53 1016.1
20260901220843 97 54 0.0 0.0 0.00 0.00 0.00 52 1016.0
20260901220342 96 46 0.0 0.0 0.00 0.00 0.00 54 1016.3
20260901215841 95 46 0.0 0.0 0.00 0.00 0.00 53 1016.1
20260901215341 94 44 0.0 1.0 0.00 0.00 0.00 53 1016.3
20260901214839 94 60 0.0 0.0 0.00 0.00 0.00 57 1016.5
20260901214339 95 60 0.0 1.0 0.00 0.00 0.00 55 1016.3
20260901213833 95 57 0.0 0.0 0.00 0.00 0.00 54 1016.4
20260901213333 96 64 0.0 1.0 0.00 0.00 0.00 57 1016.3
20260901212828 95 49 0.0 1.0 0.00 0.00 0.00 53 1016.5
20260901212323 94 59 0.0 0.0 0.00 0.00 0.00 55 1016.3
20260901211819 93 55 0.0 0.0 0.00 0.00 0.00 57 1016.4
20260901211315 93 65 0.0 1.0 0.00 0.00 0.00 58 1016.4
20260901210810 93 60 1.0 1.0 0.00 0.00 0.00 56 1016.4
20260901210306 93 60 0.0 0.0 0.00 0.00 0.00 56 1016.4
20260901205802 94 61 0.0 0.0 0.00 0.00 0.00 56 1016.5
20260901205306 95 93 1.0 2.0 0.00 0.00 0.00 51 1016.6
20260901204757 96 47 0.0 0.0 0.00 0.00 0.00 50 1016.7
20260901204253 96 51 0.0 0.0 0.00 0.00 0.00 52 1016.7
20260901203754 98 54 0.0 1.0 0.00 0.00 0.00 49 1016.7
20260901203254 97 56 0.0 0.0 0.00 0.00 0.00 49 1016.8
20260901202754 96 68 0.0 0.0 0.00 0.00 0.00 51 1016.7
20260901202249 96 76 1.0 1.0 0.00 0.00 0.00 52 1016.9
20260901201745 96 68 0.0 0.0 0.00 0.00 0.00 57 1016.7
20260901201244 95 65 0.0 0.0 0.00 0.00 0.00 54 1016.8
20260901200744 95 57 0.0 0.0 0.00 0.00 0.00 54 1016.9
20260901200239 96 60 1.0 1.0 0.00 0.00 0.00 48 1017.0
20260901195737 97 60 0.0 0.0 0.00 0.00 0.00 47 1016.9
20260901195231 98 41 0.0 0.0 0.00 0.00 0.00 45 1016.9
20260901194727 98 55 1.0 1.0 0.00 0.00 0.00 46 1017.0
20260901194222 96 47 0.0 0.0 0.00 0.00 0.00 45 1017.0
20260901193718 96 59 0.0 0.0 0.00 0.00 0.00 54 1017.0
20260901193217 96 56 0.0 0.0 0.00 0.00 0.00 48 1017.1
20260901192712 97 9 1.0 2.0 0.00 0.00 0.00 46 1017.1
20260901192207 98 74 1.0 1.0 0.00 0.00 0.00 46 1017.0
20260901191703 98 74 2.0 3.0 0.00 0.00 0.00 45 1017.3
20260901191159 96 59 0.0 1.0 0.00 0.00 0.00 48 1017.5
20260901190655 96 78 1.0 1.0 0.00 0.00 0.00 52 1017.6
20260901190154 98 25 1.0 2.0 0.00 0.00 0.00 47 1017.5
20260901185653 98 74 1.0 2.0 0.00 0.00 0.00 49 1017.3
20260901185151 99 279 4.0 4.0 0.00 0.00 0.00 46 1017.6
20260901184647 98 62 0.0 1.0 0.00 0.00 0.00 47 1017.5
20260901184142 99 8 1.0 1.0 0.00 0.00 0.00 47 1017.6
20260901183637 98 80 1.0 1.0 0.00 0.00 0.00 47 1017.7
20260901183132 97 359 2.0 2.0 0.00 0.00 0.00 45 1017.8
20260901182629 97 184 2.0 3.0 0.00 0.00 0.00 48 1017.8
20260901182127 97 111 1.0 2.0 0.00 0.00 0.00 48 1017.8
20260901181628 97 331 2.0 2.0 0.00 0.00 0.00 48 1017.8
20260901181122 97 63 0.0 0.0 0.00 0.00 0.00 47 1018.0
20260901180621 98 35 2.0 2.0 0.00 0.00 0.00 46 1017.9
20260901180116 98 357 2.0 2.0 0.00 0.00 0.00 50 1018.2
20260901175614 98 46 1.0 2.0 0.00 0.00 0.00 47 1018.1
20260901175109 97 58 0.0 1.0 0.00 0.00 0.00 48 1018.2
20260901174605 96 24 2.0 2.0 0.00 0.00 0.00 49 1018.3
20260901174102 96 42 1.0 2.0 0.00 0.00 0.00 50 1018.2
20260901173601 96 33 2.0 3.0 0.00 0.00 0.00 49 1018.3
20260901173057 96 151 2.0 3.0 0.00 0.00 0.00 49 1018.5
20260901172552 98 293 4.0 6.0 0.00 0.00 0.00 49 1018.5
20260901172050 97 3 2.0 2.0 0.00 0.00 0.00 48 1018.4
20260901171544 96 56 1.0 2.0 0.00 0.00 0.00 49 1018.6
20260901171043 96 48 0.0 1.0 0.00 0.00 0.00 53 1018.8
20260901170543 96 89 2.0 3.0 0.00 0.00 0.00 50 1018.8
20260901170038 95 48 0.0 1.0 0.00 0.00 0.00 51 1018.9
20260901165538 94 6 1.0 2.0 0.00 0.00 0.00 54 1019.0
20260901165033 95 61 0.0 0.0 0.00 0.00 0.00 53 1018.8
20260901164529 97 69 2.0 3.0 0.00 0.00 0.00 47 1019.0
20260901164024 97 60 0.0 1.0 0.00 0.00 0.00 49 1018.8
20260901163519 96 184 3.0 3.0 0.00 0.00 0.00 53 1019.0
20260901163018 96 70 1.0 1.0 0.00 0.00 0.00 52 1019.0
20260901162514 94 65 0.0 0.0 0.00 0.00 0.00 54 1019.0
20260901162013 94 5 1.0 2.0 0.00 0.00 0.00 53 1019.1
20260901161507 95 153 1.0 2.0 0.00 0.00 0.00 55 1019.1
20260901161006 94 86 1.0 2.0 0.00 0.00 0.00 56 1019.2
20260901160502 95 345 1.0 2.0 0.00 0.00 0.00 55 1019.1
20260901160002 95 33 1.0 2.0 0.00 0.00 0.00 54 1019.1
20260901155501 95 48 0.0 0.0 0.00 0.00 0.00 58 1019.2
20260901154958 96 24 1.0 2.0 0.00 0.00 0.00 55 1019.1
20260901154457 95 70 1.0 1.0 0.00 0.00 0.00 58 1019.3
20260901153952 94 28 1.0 2.0 0.00 0.00 0.00 56 1019.1
20260901153447 94 347 2.0 3.0 0.00 0.00 0.00 55 1019.2
20260901152947 93 70 0.0 0.0 0.00 0.00 0.00 55 1019.1
20260901152446 93 43 0.0 1.0 0.00 0.00 0.00 62 1019.4
20260901151946 91 51 0.0 0.0 0.00 0.00 0.00 61 1019.2
20260901151441 92 274 2.0 3.0 0.00 0.00 0.00 59 1019.2
20260901150941 91 23 1.0 2.0 0.00 0.00 0.00 58 1019.3
20260901150439 92 28 2.0 2.0 0.00 0.00 0.00 58 1019.2
20260901145937 93 66 2.0 2.0 0.00 0.00 0.00 58 1019.3
20260901145436 91 38 1.0 1.0 0.00 0.00 0.00 62 1019.2
20260901144931 90 46 1.0 1.0 0.00 0.00 0.00 64 1019.2
20260901144426 90 206 2.0 3.0 0.00 0.00 0.00 62 1019.5
20260901143922 90 343 2.0 2.0 0.00 0.00 0.00 61 1019.3
20260901143418 89 83 1.0 2.0 0.00 0.00 0.00 64 1019.3
20260901142915 88 31 2.0 2.0 0.00 0.00 0.00 65 1019.3
20260901142414 89 266 2.0 2.0 0.00 0.00 0.00 64 1019.4
20260901141909 88 100 1.0 2.0 0.00 0.00 0.00 65 1019.3
20260901141404 88 21 1.0 1.0 0.00 0.00 0.00 65 1019.3
20260901140903 87 52 0.0 1.0 0.00 0.00 0.00 66 1019.5
20260901140401 87 67 0.0 1.0 0.00 0.00 0.00 69 1019.5
20260901135856 85 74 0.0 1.0 0.00 0.00 0.00 70 1019.2
20260901135351 85 303 4.0 4.0 0.00 0.00 0.00 70 1019.3
20260901134848 85 52 3.0 3.0 0.00 0.00 0.00 71 1019.3
20260901134343 84 12 2.0 2.0 0.00 0.00 0.00 72 1019.4
20260901133842 84 182 2.0 3.0 0.00 0.00 0.00 72 1019.3
20260901133341 84 84 0.0 1.0 0.00 0.00 0.00 74 1019.5
20260901132841 83 51 0.0 0.0 0.00 0.00 0.00 75 1019.4
20260901132336 82 17 1.0 1.0 0.00 0.00 0.00 75 1019.4
20260901131835 82 70 0.0 1.0 0.00 0.00 0.00 76 1019.3
20260901131334 82 57 1.0 1.0 0.00 0.00 0.00 77 1019.4
20260901130830 82 74 1.0 1.0 0.00 0.00 0.00 77 1019.3
20260901130324 82 66 0.0 1.0 0.00 0.00 0.00 78 1019.3
20260901125822 81 71 0.0 0.0 0.00 0.00 0.00 79 1019.5
20260901125322 80 44 0.0 0.0 0.00 0.00 0.00 82 1019.3
20260901124817 79 57 0.0 1.0 0.00 0.00 0.00 84 1019.4
20260901124312 79 59 0.0 0.0 0.00 0.00 0.00 84 1019.1
20260901123812 78 63 0.0 0.0 0.00 0.00 0.00 86 1019.2
20260901123307 77 59 0.0 0.0 0.00 0.00 0.00 88 1019.2
20260901122805 75 65 0.0 0.0 0.00 0.00 0.00 92 1019.2
20260901122300 74 65 0.0 0.0 0.00 0.00 0.00 94 1019.3
20260901121759 74 55 0.0 0.0 0.00 0.00 0.00 94 1019.2
20260901121255 73 55 0.0 0.0 0.00 0.00 0.00 95 1018.9
20260901120754 73 55 0.0 0.0 0.00 0.00 0.00 95 1018.8
20260901120249 73 55 0.0 0.0 0.00 0.00 0.00 96 1019.1
20260901115745 73 55 0.0 0.0 0.00 0.00 0.00 96 1018.7
20260901115240 73 55 0.0 0.0 0.00 0.00 0.00 96 1018.8
20260901114737 73 55 0.0 0.0 0.00 0.00 0.00 96 1018.7
20260901114232 72 55 0.0 0.0 0.00 0.00 0.00 96 1018.8
20260901113730 73 55 0.0 0.0 0.00 0.00 0.00 96 1018.6
20260901113226 72 55 0.0 0.0 0.00 0.00 0.00 96 1018.5
20260901112725 73 55 0.0 0.0 0.00 0.00 0.00 96 1018.6
20260901112220 72 55 0.0 0.0 0.00 0.00 0.00 96 1018.4
20260901111720 73 55 0.0 0.0 0.00 0.00 0.00 95 1018.4
20260901111214 72 55 0.0 0.0 0.00 0.00 0.00 95 1018.3
20260901110708 73 55 0.0 0.0 0.00 0.00 0.00 95 1018.2
20260901110203 73 55 0.0 0.0 0.00 0.00 0.00 95 1018.2
20260901105700 73 55 0.0 0.0 0.00 0.00 0.00 95 1018.2
20260901105159 73 55 0.0 0.0 0.00 0.00 0.00 94 1018.3
20260901104655 73 55 0.0 0.0 0.00 0.00 0.00 94 1018.2
20260901104150 73 55 0.0 0.0 0.00 0.00 0.00 94 1018.1
20260901103650 73 55 0.0 0.0 0.00 0.00 0.00 94 1017.9
20260901103146 73 55 0.0 0.0 0.00 0.00 0.00 94 1018.0
20260901102645 73 55 0.0 0.0 0.00 0.00 0.00 95 1018.0
20260901102144 73 55 0.0 0.0 0.00 0.00 0.00 95 1018.0
20260901101641 73 55 0.0 0.0 0.00 0.00 0.00 94 1018.1
20260901101140 73 55 0.0 0.0 0.00 0.00 0.00 94 1017.9
20260901100635 73 55 0.0 0.0 0.00 0.00 0.00 94 1017.8
20260901100130 73 55 0.0 0.0 0.00 0.00 0.00 93 1018.0